Time,TemperatureF,DewpointF,PressureIn,WindDirection,WindDirectionDegrees,WindSpeedMPH,WindSpeedGustMPH,Humidity,HourlyPrecipIn,Conditions,Clouds,dailyrainin,SoftwareType,DateUTC
2013-08-24 00:03:00,57.9,47.0,29.78,North,5,0.0,-999.0,67,-99.99,,,0.00,weatherlink.com 1.10,2013-08-24 07:03:00,
2013-08-24 00:18:00,57.3,47.0,29.79,North,5,0.0,-999.0,69,-99.99,,,0.00,weatherlink.com 1.10,2013-08-24 07:18:00,
2013-08-24 00:33:00,57.2,47.0,29.79,North,5,0.0,-999.0,69,-99.99,,,0.00,weatherlink.com 1.10,2013-08-24 07:33:00,
2013-08-24 00:48:00,57.3,47.0,29.79,North,5,0.0,-999.0,68,-99.99,,,0.00,weatherlink.com 1.10,2013-08-24 07:48:00,
2013-08-24 01:03:00,57.2,47.0,29.79,North,5,0.0,-999.0,69,-99.99,,,0.00,weatherlink.com 1.10,2013-08-24 08:03:00,
2013-08-24 01:19:00,57.1,47.0,29.79,North,5,0.0,-999.0,69,-99.99,,,0.00,weatherlink.com 1.10,2013-08-24 08:19:00,
2013-08-24 01:34:00,56.7,47.0,29.79,North,5,0.0,-999.0,70,-99.99,,,0.00,weatherlink.com 1.10,2013-08-24 08:34:00,
2013-08-24 01:49:00,56.5,47.0,29.80,North,5,0.0,-999.0,71,-99.99,,,0.00,weatherlink.com 1.10,2013-08-24 08:49:00,
2013-08-24 02:04:00,56.9,48.0,29.80,North,5,0.0,-999.0,71,-99.99,,,0.00,weatherlink.com 1.10,2013-08-24 09:04:00,
2013-08-24 02:19:00,57.6,48.0,29.80,North,5,0.0,-999.0,71,-99.99,,,0.00,weatherlink.com 1.10,2013-08-24 09:19:00,
2013-08-24 02:34:00,57.9,49.0,29.80,North,5,0.0,-999.0,71,-99.99,,,0.00,weatherlink.com 1.10,2013-08-24 09:34:00,
2013-08-24 02:49:00,57.9,49.0,29.80,North,5,0.0,-999.0,71,-99.99,,,0.00,weatherlink.com 1.10,2013-08-24 09:49:00,
2013-08-24 03:04:00,57.5,48.0,29.80,North,5,0.0,-999.0,71,-99.99,,,0.00,weatherlink.com 1.10,2013-08-24 10:04:00,
2013-08-24 03:19:00,58.0,48.0,29.80,North,5,0.0,-999.0,70,-99.99,,,0.00,weatherlink.com 1.10,2013-08-24 10:19:00,
2013-08-24 03:34:00,58.4,49.0,29.81,North,5,0.0,-999.0,70,-99.99,,,0.00,weatherlink.com 1.10,2013-08-24 10:34:00,
2013-08-24 03:49:00,59.0,49.0,29.81,North,5,0.0,-999.0,70,-99.99,,,0.00,weatherlink.com 1.10,2013-08-24 10:49:00,
2013-08-24 04:04:00,59.2,49.0,29.81,North,5,0.0,-999.0,69,-99.99,,,0.00,weatherlink.com 1.10,2013-08-24 11:04:00,
2013-08-24 04:19:00,58.8,49.0,29.81,North,5,0.0,-999.0,70,-99.99,,,0.00,weatherlink.com 1.10,2013-08-24 11:19:00,
2013-08-24 04:34:00,58.3,49.0,29.80,North,5,0.0,-999.0,72,-99.99,,,0.00,weatherlink.com 1.10,2013-08-24 11:34:00,
2013-08-24 04:49:00,57.8,49.0,29.81,North,5,0.0,-999.0,73,-99.99,,,0.00,weatherlink.com 1.10,2013-08-24 11:49:00,
2013-08-24 05:04:00,57.3,49.0,29.81,North,5,0.0,-999.0,74,-99.99,,,0.00,weatherlink.com 1.10,2013-08-24 12:04:00,
2013-08-24 05:19:00,56.9,49.0,29.81,North,5,0.0,-999.0,75,-99.99,,,0.00,weatherlink.com 1.10,2013-08-24 12:19:00,
2013-08-24 05:34:00,56.7,49.0,29.81,North,5,0.0,-999.0,76,-99.99,,,0.00,weatherlink.com 1.10,2013-08-24 12:34:00,
2013-08-24 05:49:00,56.7,50.0,29.82,North,5,0.0,-999.0,77,-99.99,,,0.00,weatherlink.com 1.10,2013-08-24 12:49:00,
2013-08-24 06:04:00,56.6,49.0,29.82,North,5,0.0,-999.0,77,-99.99,,,0.00,weatherlink.com 1.10,2013-08-24 13:04:00,
2013-08-24 06:19:00,56.8,50.0,29.81,North,5,0.0,-999.0,77,-99.99,,,0.00,weatherlink.com 1.10,2013-08-24 13:19:00,
2013-08-24 06:34:00,57.4,50.0,29.82,North,5,0.0,-999.0,77,-99.99,,,0.00,weatherlink.com 1.10,2013-08-24 13:34:00,
2013-08-24 06:49:00,57.9,51.0,29.82,North,5,0.0,-999.0,77,-99.99,,,0.00,weatherlink.com 1.10,2013-08-24 13:49:00,
2013-08-24 07:04:00,58.3,51.0,29.82,North,5,0.0,-999.0,77,-99.99,,,0.00,weatherlink.com 1.10,2013-08-24 14:04:00,
2013-08-24 07:19:00,58.7,52.0,29.83,North,5,0.0,-999.0,78,-99.99,,,0.00,weatherlink.com 1.10,2013-08-24 14:19:00,
2013-08-24 07:34:00,59.1,52.0,29.83,North,5,0.0,-999.0,77,-99.99,,,0.00,weatherlink.com 1.10,2013-08-24 14:34:00,
2013-08-24 07:49:00,59.5,53.0,29.84,North,5,0.0,-999.0,78,-99.99,,,0.00,weatherlink.com 1.10,2013-08-24 14:49:00,
2013-08-24 08:04:00,59.8,53.0,29.84,North,5,0.0,-999.0,79,-99.99,,,0.00,weatherlink.com 1.10,2013-08-24 15:04:00,
2013-08-24 08:19:00,60.0,53.0,29.84,North,5,0.0,-999.0,79,-99.99,,,0.00,weatherlink.com 1.10,2013-08-24 15:19:00,
2013-08-24 08:34:00,60.1,55.0,29.84,North,5,0.0,-999.0,82,-99.99,,,0.01,weatherlink.com 1.10,2013-08-24 15:34:00,
2013-08-24 08:49:00,59.3,55.0,29.85,North,5,0.0,-999.0,86,-99.99,,,0.04,weatherlink.com 1.10,2013-08-24 15:49:00,
2013-08-24 09:04:00,58.6,55.0,29.85,North,5,0.0,-999.0,88,-99.99,,,0.05,weatherlink.com 1.10,2013-08-24 16:04:00,
2013-08-24 09:19:00,58.2,55.0,29.85,North,5,0.0,-999.0,90,-99.99,,,0.06,weatherlink.com 1.10,2013-08-24 16:19:00,
2013-08-24 09:34:00,58.2,55.0,29.87,North,5,0.0,-999.0,90,-99.99,,,0.06,weatherlink.com 1.10,2013-08-24 16:34:00,
2013-08-24 09:49:00,58.3,56.0,29.87,North,5,0.0,-999.0,91,-99.99,,,0.08,weatherlink.com 1.10,2013-08-24 16:49:00,
2013-08-24 10:04:00,58.2,56.0,29.87,North,5,0.0,-999.0,91,-99.99,,,0.09,weatherlink.com 1.10,2013-08-24 17:04:00,
2013-08-24 10:19:00,58.2,56.0,29.88,North,5,0.0,-999.0,92,-99.99,,,0.11,weatherlink.com 1.10,2013-08-24 17:19:00,
2013-08-24 10:34:00,58.2,56.0,29.89,North,5,0.0,-999.0,91,-99.99,,,0.15,weatherlink.com 1.10,2013-08-24 17:34:00,
2013-08-24 10:49:00,58.0,55.0,29.89,North,5,0.0,-999.0,91,-99.99,,,0.17,weatherlink.com 1.10,2013-08-24 17:49:00,
2013-08-24 11:04:00,58.0,56.0,29.89,North,5,1.0,-999.0,92,-99.99,,,0.18,weatherlink.com 1.10,2013-08-24 18:04:00,
2013-08-24 11:19:00,57.8,56.0,29.89,North,5,1.0,-999.0,92,-99.99,,,0.19,weatherlink.com 1.10,2013-08-24 18:19:00,
2013-08-24 11:34:00,58.1,56.0,29.89,North,5,0.0,-999.0,92,-99.99,,,0.19,weatherlink.com 1.10,2013-08-24 18:34:00,
2013-08-24 11:49:00,59.0,57.0,29.88,North,5,0.0,-999.0,92,-99.99,,,0.19,weatherlink.com 1.10,2013-08-24 18:49:00,
2013-08-24 12:04:00,59.7,57.0,29.87,North,5,0.0,-999.0,89,-99.99,,,0.19,weatherlink.com 1.10,2013-08-24 19:04:00,
2013-08-24 12:19:00,60.4,57.0,29.88,North,5,0.0,-999.0,87,-99.99,,,0.19,weatherlink.com 1.10,2013-08-24 19:19:00,
2013-08-24 12:34:00,61.0,56.0,29.87,NNW,327,4.0,-999.0,84,-99.99,,,0.19,weatherlink.com 1.10,2013-08-24 19:34:00,
2013-08-24 12:49:00,62.5,56.0,29.86,WNW,296,1.0,-999.0,79,-99.99,,,0.19,weatherlink.com 1.10,2013-08-24 19:49:00,
2013-08-24 13:05:00,64.3,57.0,29.87,NNW,340,1.0,-999.0,76,-99.99,,,0.19,weatherlink.com 1.10,2013-08-24 20:05:00,
2013-08-24 13:20:00,64.8,55.0,29.87,NNW,344,0.0,-999.0,70,-99.99,,,0.19,weatherlink.com 1.10,2013-08-24 20:20:00,
2013-08-24 13:35:00,64.6,57.0,29.87,NNW,344,0.0,-999.0,77,-99.99,,,0.19,weatherlink.com 1.10,2013-08-24 20:35:00,
2013-08-24 13:50:00,63.7,57.0,29.86,NNW,344,1.0,-999.0,79,-99.99,,,0.19,weatherlink.com 1.10,2013-08-24 20:50:00,
2013-08-24 14:05:00,63.4,58.0,29.85,NNW,344,0.0,-999.0,81,-99.99,,,0.20,weatherlink.com 1.10,2013-08-24 21:05:00,
2013-08-24 14:20:00,66.1,56.0,29.84,NNE,13,6.0,-999.0,69,-99.99,,,0.20,weatherlink.com 1.10,2013-08-24 21:20:00,
2013-08-24 14:35:00,67.7,57.0,29.83,NNW,348,1.0,-999.0,68,-99.99,,,0.20,weatherlink.com 1.10,2013-08-24 21:35:00,
2013-08-24 14:50:00,69.5,54.0,29.82,ENE,77,1.0,-999.0,58,-99.99,,,0.20,weatherlink.com 1.10,2013-08-24 21:50:00,
2013-08-24 15:05:00,70.1,54.0,29.82,ESE,123,6.0,-999.0,57,-99.99,,,0.20,weatherlink.com 1.10,2013-08-24 22:05:00,
2013-08-24 15:20:00,70.5,54.0,29.81,NNE,18,2.0,-999.0,57,-99.99,,,0.20,weatherlink.com 1.10,2013-08-24 22:20:00,
2013-08-24 15:35:00,71.5,54.0,29.80,WNW,298,0.0,-999.0,55,-99.99,,,0.20,weatherlink.com 1.10,2013-08-24 22:35:00,
2013-08-24 15:50:00,72.4,53.0,29.80,NNE,22,2.0,-999.0,51,-99.99,,,0.20,weatherlink.com 1.10,2013-08-24 22:50:00,
2013-08-24 16:05:00,72.2,52.0,29.80,NNE,22,0.0,-999.0,49,-99.99,,,0.20,weatherlink.com 1.10,2013-08-24 23:05:00,
2013-08-24 16:20:00,71.7,52.0,29.80,NNE,22,0.0,-999.0,51,-99.99,,,0.20,weatherlink.com 1.10,2013-08-24 23:20:00,
2013-08-24 16:35:00,71.3,52.0,29.80,South,178,1.0,-999.0,50,-99.99,,,0.20,weatherlink.com 1.10,2013-08-24 23:35:00,
2013-08-24 16:50:00,71.5,52.0,29.79,South,178,1.0,-999.0,50,-99.99,,,0.20,weatherlink.com 1.10,2013-08-24 23:50:00,
2013-08-24 17:05:00,71.5,52.0,29.80,SE,127,1.0,-999.0,51,-99.99,,,0.20,weatherlink.com 1.10,2013-08-25 00:05:00,
2013-08-24 17:20:00,71.2,52.0,29.80,South,176,0.0,-999.0,51,-99.99,,,0.20,weatherlink.com 1.10,2013-08-25 00:20:00,
2013-08-24 17:35:00,70.7,53.0,29.80,South,176,0.0,-999.0,53,-99.99,,,0.20,weatherlink.com 1.10,2013-08-25 00:35:00,
2013-08-24 17:50:00,70.9,54.0,29.81,SSW,199,0.0,-999.0,56,-99.99,,,0.20,weatherlink.com 1.10,2013-08-25 00:50:00,
2013-08-24 18:05:00,69.8,55.0,29.82,SSW,200,1.0,-999.0,59,-99.99,,,0.20,weatherlink.com 1.10,2013-08-25 01:05:00,
2013-08-24 18:20:00,68.7,55.0,29.82,SSW,200,0.0,-999.0,62,-99.99,,,0.20,weatherlink.com 1.10,2013-08-25 01:20:00,
2013-08-24 18:35:00,67.9,55.0,29.83,SSW,200,0.0,-999.0,64,-99.99,,,0.20,weatherlink.com 1.10,2013-08-25 01:35:00,
2013-08-24 18:50:00,67.1,55.0,29.84,SSW,200,0.0,-999.0,66,-99.99,,,0.20,weatherlink.com 1.10,2013-08-25 01:50:00,
2013-08-24 19:05:00,66.1,55.0,29.85,SSW,200,0.0,-999.0,68,-99.99,,,0.20,weatherlink.com 1.10,2013-08-25 02:05:00,
2013-08-24 19:20:00,65.3,55.0,29.86,SSW,200,0.0,-999.0,70,-99.99,,,0.20,weatherlink.com 1.10,2013-08-25 02:20:00,
2013-08-24 19:35:00,64.5,55.0,29.86,SSW,200,0.0,-999.0,70,-99.99,,,0.20,weatherlink.com 1.10,2013-08-25 02:35:00,
2013-08-24 19:50:00,63.6,55.0,29.87,SSW,200,0.0,-999.0,74,-99.99,,,0.20,weatherlink.com 1.10,2013-08-25 02:50:00,
2013-08-24 20:05:00,62.8,55.0,29.87,SSW,200,0.0,-999.0,76,-99.99,,,0.20,weatherlink.com 1.10,2013-08-25 03:05:00,
2013-08-24 20:20:00,62.3,55.0,29.88,SSW,200,0.0,-999.0,77,-99.99,,,0.20,weatherlink.com 1.10,2013-08-25 03:20:00,
2013-08-24 20:35:00,61.8,55.0,29.88,SSW,200,0.0,-999.0,77,-99.99,,,0.20,weatherlink.com 1.10,2013-08-25 03:35:00,
2013-08-24 20:50:00,61.6,54.0,29.88,SSW,200,0.0,-999.0,77,-99.99,,,0.20,weatherlink.com 1.10,2013-08-25 03:50:00,
2013-08-24 21:05:00,61.2,55.0,29.88,SSW,200,0.0,-999.0,79,-99.99,,,0.20,weatherlink.com 1.10,2013-08-25 04:05:00,
2013-08-24 21:20:00,60.9,54.0,29.89,SSW,200,0.0,-999.0,79,-99.99,,,0.20,weatherlink.com 1.10,2013-08-25 04:20:00,
2013-08-24 21:35:00,60.5,54.0,29.89,SSW,200,0.0,-999.0,80,-99.99,,,0.20,weatherlink.com 1.10,2013-08-25 04:35:00,
2013-08-24 21:50:00,60.4,54.0,29.89,SSW,200,0.0,-999.0,80,-99.99,,,0.20,weatherlink.com 1.10,2013-08-25 04:50:00,
2013-08-24 22:05:00,60.2,54.0,29.89,SSW,200,0.0,-999.0,81,-99.99,,,0.20,weatherlink.com 1.10,2013-08-25 05:05:00,
2013-08-24 22:20:00,59.9,54.0,29.89,SSW,200,0.0,-999.0,81,-99.99,,,0.20,weatherlink.com 1.10,2013-08-25 05:20:00,
2013-08-24 22:35:00,59.6,54.0,29.89,SSW,200,0.0,-999.0,81,-99.99,,,0.20,weatherlink.com 1.10,2013-08-25 05:35:00,
2013-08-24 22:50:00,59.4,54.0,29.89,SSW,200,0.0,-999.0,82,-99.99,,,0.20,weatherlink.com 1.10,2013-08-25 05:50:00,
2013-08-24 23:05:00,59.2,54.0,29.89,SSW,200,0.0,-999.0,82,-99.99,,,0.20,weatherlink.com 1.10,2013-08-25 06:05:00,
2013-08-24 23:20:00,59.1,54.0,29.88,SSW,200,0.0,-999.0,82,-99.99,,,0.20,weatherlink.com 1.10,2013-08-25 06:20:00,
2013-08-24 23:35:00,58.9,53.0,29.89,SSW,200,0.0,-999.0,82,-99.99,,,0.20,weatherlink.com 1.10,2013-08-25 06:35:00,
2013-08-24 23:50:00,58.7,54.0,29.89,SSW,200,0.0,-999.0,83,-99.99,,,0.20,weatherlink.com 1.10,2013-08-25 06:50:00,